Regional Weather Roundup
Issued by NWS

Home | Current Version | Previous Version | Graphics & Text | Print | Product List | Glossary On
Versions: 1 2 3 4 5 6 7 8 9 10 11 12 13 14 15 16 17 18 19 20 21 22 23 24 25 26 27 28 29 30 31 32 33 34 35 36 37 38 39 40 41 42 43 44 45 46 47 48 49 50
000
ASUS43 KDMX 230607
RWRIA

WEATHER ROUNDUP FOR IOWA
NATIONAL WEATHER SERVICE DES MOINES IA
1200 AM CST SUN NOV 23 2014

NOTE: "FAIR" INDICATES FEW OR NO CLOUDS BELOW 12,000 FEET WITH NO
SIGNIFICANT WEATHER AND/OR OBSTRUCTIONS TO VISIBILITY.

* - THESE STATIONS ARE NOT NWS STATIONS...THUS NOT UNDER NWS
QUALITY CONTROL.  THEY ALSO DO NOT REPORT WEATHER SUCH
AS PRECIPITATION OR FOG.

IAZ001>003-012>014-020>022-031>034-043>046-230700-
   NORTHWEST IOWA

CITY           SKY/WX    TMP DP  RH WIND       PRES   REMARKS
CARROLL *      CLOUDY    52  52 100 SW18G25   29.56S
CHEROKEE *     CLOUDY    52  52  99 S12       29.51F
DENISON *      CLOUDY    54  54 100 S16G26    29.53F
LE MARS *      CLOUDY    52  50  93 S14       29.49S
ORANGE CITY *  CLOUDY    50  46  87 S13       29.48F FOG
SHELDON *      CLOUDY    50  50 100 S13       29.47F
SIOUX CITY     CLOUDY    53  50  89 S8        29.50F
6HR MIN TEMP:  36; 6HR MAX TEMP:  54;

SPENCER        MOCLDY    49  47  93 S16       29.50F
6HR MIN TEMP:  38; 6HR MAX TEMP:  50;

STORM LAKE *   CLOUDY    52  50  93 S16G23    29.53S FOG
$$

IAZ055>058-069>071-079>083-090>094-230700-
   SOUTHWEST IOWA

CITY           SKY/WX    TMP DP  RH WIND       PRES   REMARKS
ATLANTIC *     CLOUDY    52  52 100 S14G24    29.59F FOG
AUDUBON *      DRIZZLE   52  46  82 S15       29.60F
CLARINDA *     CLOUDY    54  52  94 S13G18    29.65F
COUNCIL BLFS * CLOUDY    54  54 100 S14G21    29.56F
CRESTON *      CLOUDY    52  52 100 SW17G24   29.65S
HARLAN  *      CLOUDY    52  52 100 S15G22    29.61F FOG
LAMONI         CLOUDY    53  50  89 S13       29.67R
6HR MIN TEMP:  50; 6HR MAX TEMP:  54;

RED OAK *      CLOUDY    54  52  94 S12       29.61F
SHENANDOAH *   CLOUDY    54  54 100 S14       29.62F
$$

IAZ047>049-059>061-072>074-084-230700-
   CENTRAL IOWA

CITY           SKY/WX    TMP DP  RH WIND       PRES   REMARKS
AMES           CLOUDY    53  48  83 SW14      29.63S
6HR MIN TEMP:  51; 6HR MAX TEMP:  55;

ANKENY *       CLOUDY    54  50  87 S12G18    29.64F
CHARITON *     CLOUDY    54  50  87 SW15G22   29.66S
DES MOINES     CLOUDY    55  49  80 SW13G23   29.64F
6HR MIN TEMP:  52; 6HR MAX TEMP:  57;

GRINNELL*      CLOUDY    52  50  93 S17       29.67S
KNOXVILLE *    CLOUDY    55  50  82 SW13G18   29.65S
MARSHALLTOWN   CLOUDY    53  49  86 S20G30    29.63S
6HR MIN TEMP:  49; 6HR MAX TEMP:  54;

PELLA *        CLOUDY    55  50  85 SW10G17   29.68S
PERRY *        CLOUDY    52  50  93 S15       29.61F FOG
$$

IAZ004>006-015-016-023>025-035-036-230700-
   NORTH CENTRAL IOWA

CITY           SKY/WX    TMP DP  RH WIND       PRES   REMARKS
ALGONA *       CLOUDY    52  52 100 S17       29.54F
CLARION *      CLOUDY    52  52 100 S21G31    29.57F
ESTHERVILLE    CLOUDY    50  48  93 S20       29.50F FOG
6HR MIN TEMP:  36; 6HR MAX TEMP:  50;

FORT DODGE *   CLOUDY    52  50  93 S17G25    29.58S
MASON CITY     CLOUDY    51  50  96 S17G26    29.58R FOG
6HR MIN TEMP:  35; 6HR MAX TEMP:  51;

FOREST CITY *  CLOUDY    52  52 100 S22G29    29.56R
IOWA FALLS *   CLOUDY    52  48  87 S13       29.63S
$$

IAZ007>011-017>019-026>030-037>042-050>054-066-230700-
   NORTHEAST IOWA

CITY           SKY/WX    TMP DP  RH WIND       PRES   REMARKS
CEDAR RAPIDS   CLOUDY    49  48  97 S9        29.69F
6HR MIN TEMP:  49; 6HR MAX TEMP:  53;

CHARLES CITY * CLOUDY    52  50  93 S20G28    29.61S
CLINTON *      CLOUDY    48  46  93 S10       29.78F
DECORAH *      CLOUDY    52  50  93 S13G20    29.63S
DUBUQUE        CLOUDY    48  47  96 S21       29.70F
6HR MIN TEMP:  46; 6HR MAX TEMP:  50;

MONTICELLO *   CLOUDY    50  50 100 S13G21    29.71F
OELWEIN *      CLOUDY    50  48  93 S17       29.65F
WATERLOO       CLOUDY    51  49  92 S14       29.64S
6HR MIN TEMP:  49; 6HR MAX TEMP:  53;

$$

IAZ064-065-067-068-078-230700-
   EAST CENTRAL IOWA

CITY           SKY/WX    TMP DP  RH WIND       PRES   REMARKS
DAVENPORT      CLOUDY    50  47  89 S16       29.76S
6HR MIN TEMP:  50; 6HR MAX TEMP:  54;

IOWA CITY      CLOUDY    50  49  96 S10       29.73F
6HR MIN TEMP:  48; 6HR MAX TEMP:  54;

MT. PLEASANT * CLOUDY    52  49  91 S14       29.73F
MUSCATINE *    CLOUDY    52  48  87 S12       29.74S
QUAD CITIES    CLOUDY    52  48  86 S15G22    29.76S
6HR MIN TEMP:  50; 6HR MAX TEMP:  55;

$$

IAZ062-063-075>077-085>089-095>099-230700-
   SOUTHEAST IOWA

CITY           SKY/WX    TMP DP  RH WIND       PRES   REMARKS
BURLINGTON     CLOUDY    52  49  89 S13       29.75F
6HR MIN TEMP:  51; 6HR MAX TEMP:  56;

FAIRFIELD *    CLOUDY    54  50  87 S17       29.70F
FORT MADISON *   N/A     55  52  88 S15       29.76F
KEOKUK *       CLOUDY    54  50  87 S10G18    29.75F
OSKALOOSA *    CLOUDY    51  49  92 S9        29.69S
CENTERVILLE *  CLOUDY    54  54 100 S17G24    29.69F
OTTUMWA        CLOUDY    53  49  86 S16       29.69S
6HR MIN TEMP:  51; 6HR MAX TEMP:  55;

WASHINGTON *   CLOUDY    54  54 100 S17       29.71S
$$

ABBREVIATIONS USED IN REMARKS
   TC - TEMPERATURES IN CELSIUS
  WCI - WIND CHILL INDEX
   HX - HEAT INDEX
  VSB - VISIBILITY
$$



USA.gov is the U.S. government's official web portal to all federal, state and local government web resources and services.